Wind_Speed
50 48 47 48 48 47 47 47 47 46 46 46 45 45 44 42 41 40 40 41 42 43 43 43 42 40 38 37 38 39 41 41 42 41 38 36 36 34 32 31 29 28
51 49 47 47 47 47 47 47 48 48 48 48 48 49 49 48 47 47 47 48 49 49 48 46 44 42 41 41 42 42 43 44 44 42 39 37 36 35 34 32 31 31
54 53 51 50 49 48 47 46 47 48 49 51 52 54 55 55 55 54 54 54 54 53 51 48 46 45 44 45 45 46 46 46 44 42 40 39 38 38 37 36 35 34
52 52 52 52 53 53 52 50 49 50 51 52 54 56 57 58 57 57 57 56 55 54 52 50 48 48 47 48 48 47 47 45 44 43 42 42 41 40 39 38 38 38
48 50 50 51 52 55 56 56 55 55 54 53 54 55 56 56 56 56 55 55 54 53 52 51 50 49 48 48 48 47 47 46 45 44 45 44 43 41 41 40 40 39
46 48 50 51 52 53 55 57 57 57 56 55 55 54 55 55 54 54 54 53 53 52 51 50 49 49 49 49 49 49 48 47 47 48 48 47 44 43 43 42 42 41
46 48 49 50 52 53 54 56 56 55 55 55 55 55 55 55 54 54 53 52 51 51 50 49 49 50 50 51 51 51 51 51 52 52 50 48 47 46 46 45 45 43
48 50 50 51 52 52 53 55 55 55 53 53 53 54 53 53 52 52 52 51 51 51 51 51 51 51 51 51 52 52 53 53 53 52 51 50 50 50 49 48 47 47
50 52 53 54 55 55 55 57 57 58 57 56 54 54 52 52 51 51 50 49 49 50 50 49 49 49 49 49 49 50 50 51 52 52 52 53 53 53 52 50 50 49
54 56 57 59 61 62 61 61 61 62 61 60 58 56 54 53 52 51 50 49 48 47 48 48 48 48 48 48 49 50 51 52 52 54 55 55 55 53 52 51 50 50
57 58 60 62 64 64 62 61 61 61 60 59 57 56 56 56 55 53 51 48 46 46 47 48 48 48 49 50 50 52 53 53 53 55 55 54 53 53 52 51 50 50
55 55 56 58 60 61 60 58 58 58 57 57 58 59 59 58 56 53 49 45 44 46 47 48 49 49 50 51 52 53 54 53 52 53 52 51 51 52 51 51 50 50
56 56 55 54 55 57 57 57 59 59 59 59 60 59 58 54 50 47 46 45 46 48 50 51 51 51 52 52 53 54 54 52 52 54 53 53 54 54 54 54 54 54
56 56 54 51 51 53 54 56 58 59 59 58 57 55 52 49 46 46 48 50 52 53 54 54 54 53 53 53 52 52 53 54 55 56 55 54 54 55 57 58 59 60
54 54 53 50 51 52 52 53 55 57 56 55 54 54 53 51 51 53 55 56 57 58 58 58 58 57 56 56 55 54 53 55 56 55 54 55 57 60 61 60 58 58
55 55 53 51 52 51 49 50 54 56 56 56 55 55 55 55 56 57 59 60 61 61 61 61 61 60 58 57 55 54 53 55 57 58 58 56 56 60 63 61 57 54
55 53 50 48 48 48 47 50 54 57 56 54 54 55 55 56 57 58 59 62 63 64 65 66 65 63 60 57 54 53 55 59 62 65 65 61 57 57 61 64 63 60
51 50 49 49 49 49 51 51 51 52 53 51 50 51 53 54 57 60 61 62 64 65 66 67 67 65 63 60 58 59 62 66 68 69 69 67 64 62 64 67 68 68
53 54 55 57 57 57 57 57 53 51 52 53 53 53 54 56 59 63 65 67 69 71 71 70 70 69 67 66 67 68 70 73 73 72 71 70 69 69 69 70 72 73
56 58 59 61 62 61 62 63 61 58 57 58 58 58 59 60 62 66 70 71 72 73 73 72 71 71 70 71 73 74 76 76 76 76 75 74 74 74 75 75 76 76
56 56 56 58 59 60 61 62 63 62 62 62 62 63 64 66 68 70 72 73 73 73 72 72 71 72 73 75 76 78 78 79 79 78 78 78 78 79 79 79 79 79
60 60 59 60 60 60 62 62 61 61 63 65 67 68 70 71 72 73 74 75 76 77 77 77 77 78 78 79 81 82 83 83 82 81 81 81 82 82 82 82 82 83
67 67 66 67 67 66 67 68 68 68 69 70 72 74 75 75 74 74 75 77 78 78 79 80 81 82 82 83 83 84 85 85 85 85 85 85 85 85 85 85 84 84
71 71 71 73 74 75 75 77 78 79 79 79 80 81 82 81 80 79 79 79 79 79 80 80 81 82 83 83 84 83 83 84 84 84 85 86 86 86 85 85 84 83
76 77 77 78 79 80 82 82 83 84 85 86 87 87 88 87 86 84 84 84 85 85 85 86 86 87 87 88 88 88 88 87 86 86 86 87 87 87 86 85 84 83
81 81 81 82 82 83 83 84 83 84 85 86 87 88 88 87 86 86 86 87 88 90 91 92 92 93 94 94 94 94 94 93 92 91 90 90 91 91 91 91 91 90
Wind_Direction
260 262 263 263 263 264 265 267 267 267 267 266 266 266 266 265 265 266 268 272 276 279 282 283 284 283 281 281 281 283 285 285 288 291 287 282 280 280 280 278 275 273
258 259 260 261 262 262 264 265 267 267 267 267 266 267 268 268 269 270 272 275 277 279 281 282 282 280 278 277 278 280 283 284 287 287 284 280 278 277 278 277 275 275
259 259 259 259 260 260 261 261 263 265 265 266 267 268 270 271 272 273 273 274 275 277 278 279 279 278 276 276 277 279 282 283 284 283 281 279 277 276 277 276 276 277
261 260 260 259 258 258 257 257 261 264 265 266 267 268 270 271 272 272 272 272 273 275 277 277 277 276 276 276 278 279 281 282 281 280 280 279 278 277 278 278 278 278
262 260 258 258 258 258 258 259 262 265 267 268 268 269 270 271 271 271 272 274 275 276 277 277 276 277 277 278 279 279 280 279 278 279 281 281 280 279 280 281 280 280
262 261 259 259 259 260 261 262 264 266 267 268 269 270 271 272 273 274 276 276 276 277 277 277 278 277 278 278 278 279 279 279 279 281 283 284 283 282 283 283 283 283
262 262 261 261 261 261 262 263 265 267 267 268 269 270 272 274 276 276 277 277 277 277 278 278 279 278 278 279 280 282 283 283 284 285 286 286 286 285 285 285 285 286
259 260 261 262 261 261 262 262 264 267 268 268 270 271 273 274 275 276 277 277 278 279 280 281 281 282 283 284 286 287 288 288 289 289 288 288 289 289 288 288 289 289
255 257 259 260 261 261 261 262 264 266 268 269 269 270 270 271 273 274 275 277 279 281 281 281 280 281 282 284 286 287 288 288 288 287 287 289 291 291 289 289 290 290
257 258 259 260 260 261 261 262 264 265 267 267 267 267 268 268 270 273 275 277 279 278 277 276 276 277 279 281 283 284 285 284 284 284 286 288 289 288 287 287 287 288
261 261 262 261 261 262 262 263 263 263 263 264 264 264 265 266 269 273 276 276 275 274 273 274 275 276 278 279 281 282 281 280 280 281 283 285 285 284 283 284 286 287
262 263 264 263 263 263 263 262 261 260 260 261 262 264 266 268 271 274 273 271 270 270 271 272 273 275 276 278 279 279 278 278 277 277 279 280 280 280 282 284 286 287
262 263 264 265 265 265 263 262 260 259 259 261 263 266 268 269 270 268 265 264 264 266 267 270 272 274 276 277 277 277 277 277 276 275 277 278 278 280 283 286 288 288
261 259 261 264 265 264 263 263 263 262 262 263 264 265 266 264 260 258 259 260 262 264 266 268 271 273 275 275 274 274 275 276 276 276 278 280 281 283 286 289 290 290
259 258 257 257 259 261 263 264 263 262 262 263 263 264 263 260 257 256 258 261 263 265 268 270 273 275 276 273 272 272 273 275 277 280 282 283 284 286 288 289 289 289
260 259 256 254 254 257 260 261 260 259 259 260 260 261 262 262 261 259 260 262 264 267 269 272 274 276 275 271 269 269 271 275 278 281 283 283 283 284 286 287 286 285
259 256 252 250 251 252 254 257 259 259 259 260 259 260 261 262 263 263 262 262 264 266 269 271 273 274 272 268 266 267 271 275 279 281 282 281 278 278 281 284 284 283
255 248 244 247 250 249 250 254 257 258 258 257 257 257 258 259 260 262 262 263 265 267 269 270 272 272 269 265 265 269 273 277 279 280 281 280 279 276 277 280 282 283
252 247 246 250 252 252 251 251 251 253 254 254 255 256 256 257 259 261 263 264 267 268 269 269 270 271 269 265 265 269 273 275 278 278 277 277 277 277 276 277 279 280
254 254 253 255 255 255 255 254 252 252 252 254 256 256 256 257 260 264 266 268 269 269 269 268 268 268 268 266 266 269 271 273 274 274 274 274 274 275 275 276 277 277
255 255 255 255 256 256 256 256 256 255 253 254 256 258 259 262 265 269 271 271 270 269 268 267 266 265 266 267 268 269 270 271 271 272 272 272 273 273 274 275 276 276
253 255 255 255 255 256 256 256 256 255 255 257 259 261 264 266 269 270 270 270 270 269 268 267 266 266 266 267 268 269 269 270 271 271 272 272 273 274 274 275 275 276
253 255 256 255 254 254 254 256 256 256 257 258 259 262 264 266 267 267 267 268 268 268 268 267 267 267 267 268 268 268 269 269 269 270 271 272 273 273 274 275 275 275
254 255 256 255 255 254 255 256 256 257 257 258 259 260 261 263 264 265 266 267 267 267 268 268 268 268 268 268 268 268 268 269 269 269 270 271 272 273 274 274 275 274
257 258 258 258 257 257 257 257 257 258 258 259 259 260 261 261 262 262 263 264 266 266 267 268 269 269 269 269 269 269 269 269 269 269 269 270 271 272 272 272 272 272
260 260 260 260 259 258 258 258 259 259 260 260 260 261 261 262 261 261 262 263 264 265 266 267 267 268 268 269 269 270 270 270 270 269 269 270 270 271 272 272 271 271
Height
10641 10641 10641 10640 10639 10640 10641 10640 10641 10642 10643 10643 10643 10643 10644 10645 10646 10647 10647 10647 10647 10646 10646 10646 10646 10646 10645 10645 10645 10645 10645 10645 10644 10644 10643 10642 10642 10641 10641 10640 10639 10638
10636 10637 10636 10636 10635 10636 10636 10636 10636 10637 10637 10638 10638 10638 10638 10639 10641 10642 10642 10642 10642 10641 10641 10641 10641 10641 10641 10640 10640 10640 10639 10639 10639 10638 10638 10637 10637 10637 10636 10636 10635 10635
10631 10631 10632 10632 10632 10632 10632 10632 10631 10632 10632 10632 10632 10632 10632 10633 10635 10636 10636 10637 10637 10636 10636 10635 10635 10635 10635 10635 10634 10634 10633 10633 10633 10632 10632 10632 10632 10632 10631 10631 10631 10630
10625 10626 10626 10627 10627 10627 10627 10627 10627 10627 10627 10627 10627 10627 10627 10628 10629 10630 10630 10631 10631 10630 10629 10629 10629 10629 10628 10628 10628 10628 10627 10627 10627 10626 10627 10627 10627 10627 10627 10626 10626 10625
10619 10620 10620 10621 10622 10622 10622 10622 10622 10622 10622 10623 10622 10622 10622 10622 10622 10623 10624 10623 10623 10622 10622 10622 10622 10621 10621 10621 10621 10621 10621 10621 10621 10621 10622 10622 10622 10622 10621 10621 10621 10620
10614 10614 10614 10615 10615 10616 10616 10616 10616 10616 10617 10618 10617 10617 10616 10616 10616 10616 10616 10615 10615 10615 10614 10614 10614 10614 10614 10614 10615 10615 10615 10616 10616 10616 10616 10616 10616 10616 10615 10615 10615 10614
10609 10608 10608 10608 10608 10609 10610 10610 10610 10611 10612 10613 10611 10611 10610 10609 10609 10609 10609 10609 10608 10608 10608 10608 10608 10607 10607 10608 10608 10608 10608 10609 10609 10609 10609 10610 10609 10609 10608 10608 10608 10608
10603 10602 10603 10602 10602 10603 10605 10605 10605 10605 10606 10606 10605 10604 10603 10603 10602 10602 10602 10602 10602 10602 10601 10601 10600 10600 10599 10599 10599 10600 10600 10601 10601 10601 10601 10601 10602 10601 10601 10602 10602 10602
10596 10596 10598 10597 10596 10597 10598 10598 10599 10599 10600 10600 10599 10597 10597 10597 10596 10596 10596 10596 10596 10595 10594 10593 10593 10592 10592 10592 10592 10593 10593 10593 10594 10594 10594 10595 10596 10595 10595 10595 10596 10596
10590 10591 10592 10591 10589 10589 10592 10593 10594 10594 10594 10593 10593 10592 10591 10591 10591 10591 10591 10592 10591 10590 10588 10587 10586 10586 10586 10587 10588 10588 10588 10588 10588 10588 10589 10590 10590 10589 10589 10589 10589 10590
10585 10585 10584 10583 10580 10582 10587 10589 10588 10589 10588 10587 10586 10585 10584 10585 10586 10586 10587 10587 10586 10584 10582 10581 10581 10581 10581 10582 10583 10582 10581 10582 10582 10582 10583 10584 10583 10582 10582 10583 10583 10583
10580 10579 10577 10576 10574 10575 10579 10581 10581 10580 10581 10580 10579 10578 10578 10579 10580 10581 10581 10580 10579 10577 10576 10575 10575 10575 10575 10576 10577 10575 10574 10575 10576 10576 10577 10578 10577 10576 10575 10576 10576 10577
10575 10574 10571 10571 10569 10569 10571 10572 10571 10571 10572 10573 10572 10571 10572 10573 10574 10575 10574 10573 10572 10571 10570 10569 10570 10570 10570 10572 10571 10569 10568 10569 10570 10571 10572 10571 10570 10569 10569 10569 10570 10570
10569 10569 10568 10567 10563 10561 10562 10562 10562 10562 10563 10564 10564 10564 10565 10567 10568 10568 10567 10565 10565 10564 10564 10564 10564 10564 10565 10566 10565 10564 10562 10562 10563 10565 10565 10564 10563 10563 10562 10562 10562 10561
10563 10563 10563 10562 10556 10554 10555 10555 10553 10553 10554 10555 10556 10557 10558 10560 10561 10560 10559 10558 10558 10557 10557 10557 10558 10558 10559 10559 10559 10558 10557 10555 10555 10557 10558 10557 10556 10556 10555 10554 10554 10553
10556 10556 10555 10554 10550 10548 10549 10548 10545 10544 10547 10548 10549 10550 10551 10552 10552 10552 10551 10551 10551 10551 10550 10550 10550 10551 10552 10552 10552 10551 10550 10549 10549 10550 10551 10551 10550 10548 10547 10547 10547 10546
10548 10548 10547 10546 10544 10544 10543 10541 10539 10538 10540 10542 10542 10543 10543 10544 10544 10545 10545 10544 10544 10543 10543 10543 10543 10544 10545 10545 10545 10544 10543 10542 10542 10543 10544 10545 10545 10542 10540 10540 10540 10539
10541 10540 10539 10538 10538 10538 10537 10536 10534 10532 10533 10534 10534 10535 10536 10537 10537 10537 10537 10537 10536 10536 10536 10536 10537 10538 10538 10538 10537 10537 10536 10535 10535 10536 10536 10537 10537 10536 10535 10534 10533 10533
10533 10533 10533 10531 10531 10530 10530 10530 10529 10527 10525 10526 10527 10528 10529 10530 10530 10529 10529 10529 10529 10529 10530 10530 10530 10531 10531 10531 10531 10530 10529 10528 10529 10529 10530 10529 10529 10529 10528 10528 10526 10526
10525 10524 10523 10522 10522 10522 10522 10522 10523 10522 10521 10521 10522 10523 10523 10523 10524 10522 10521 10521 10521 10521 10522 10523 10523 10523 10523 10523 10523 10523 10523 10522 10522 10522 10522 10522 10522 10521 10521 10521 10520 10518
10517 10515 10513 10511 10512 10514 10514 10514 10516 10517 10517 10516 10516 10516 10516 10516 10517 10516 10514 10513 10513 10513 10513 10513 10514 10514 10514 10514 10514 10514 10514 10515 10515 10515 10514 10514 10513 10512 10513 10514 10513 10509
10512 10510 10508 10506 10506 10507 10508 10508 10509 10510 10510 10509 10509 10509 10508 10508 10509 10508 10507 10506 10505 10504 10504 10504 10504 10505 10505 10505 10504 10505 10505 10506 10507 10507 10506 10504 10503 10503 10504 10506 10504 10501
10507 10507 10506 10503 10502 10502 10502 10501 10501 10501 10502 10502 10501 10501 10501 10501 10500 10500 10498 10497 10496 10495 10495 10494 10494 10494 10494 10495 10495 10495 10496 10497 10499 10499 10496 10494 10494 10494 10494 10495 10494 10492
10498 10498 10498 10496 10494 10494 10494 10493 10492 10492 10493 10493 10492 10492 10492 10493 10492 10491 10489 10488 10487 10486 10485 10484 10484 10483 10483 10484 10484 10485 10486 10487 10489 10490 10487 10485 10485 10485 10485 10484 10483 10481
10487 10487 10486 10485 10485 10484 10484 10483 10482 10482 10483 10483 10482 10481 10481 10483 10484 10483 10481 10478 10477 10476 10475 10474 10474 10472 10472 10472 10473 10473 10474 10476 10478 10479 10478 10475 10475 10475 10474 10473 10472 10471
10475 10475 10475 10475 10474 10473 10473 10473 10473 10472 10471 10470 10469 10469 10470 10471 10473 10473 10472 10470 10468 10466 10465 10464 10463 10462 10461 10461 10461 10461 10461 10462 10465 10467 10468 10466 10465 10464 10462 10460 10460 10460